Weather History for Cape Girardeau, MO

Change the Weather History Date:

Wednesday, March 6, 2013

  Actual Average Record
Temperature  
Mean Temperature 36 °F 44 °F  
Max Temperature 44 °F 55 °F 77 °F (1994)
Min Temperature 28 °F 33 °F 20 °F (1966)
Degree Days  
Heating Degree Days 29 21  
Month to date heating degree days 172 131  
Since 1 July heating degree days 3411 3628  
Cooling Degree Days 0 0  
Month to date cooling degree days 0 0  
Year to date cooling degree days 0 0  
Moisture  
Dew Point 24 °F    
Average Humidity 64    
Maximum Humidity 78    
Minimum Humidity 49    
Precipitation  
Precipitation 0.00 in 0.14 in 0.99 in (1967)
Month to date precipitation 0.11 0.74  
Year to date precipitation 6.73 7.62  
Sea Level Pressure  
Sea Level Pressure 30.30 in    
Wind  
Wind Speed 11 mph (NNW)    
Max Wind Speed 24 mph    
Max Gust Speed 33 mph    
Visibility 10 miles    
Events      
T = Trace of Precipitation, MM = Missing Value Source: NWS Daily Summary

Daily Weather History Graph

Daily Weather History Graph

Search for Another Location

Airport:

Trip Planner

Search our weather history database for the weather conditions in past years. The results will help you decide how hot, cold, wet, or windy it might be!

Date:

Astronomy

Mar. 06, 2013 Rise Set
Actual Time 6:22 AM CST 5:57 PM CST
Civil Twilight 5:55 AM CST 6:23 PM CST
Nautical Twilight 5:25 AM CST 6:53 PM CST
Astronomical Twilight 4:55 AM CST 7:23 PM CST
Moon 2:25 AM CST (3/6) 12:44 PM CST (3/6)
Length of Visible Light 12h 27m
Length of Day
11h 35m
Waning Crescent, 29% of the Moon is Illuminated
Mar 6
Waning Crescent
Mar 11
New
Mar 19
First Quarter
Mar 27
Full
Apr 2
Last Quarter

Hourly Weather History & Observations

Time (CST) Temp. Windchill Dew Point Humidity Pressure Visibility Wind Dir Wind Speed Gust Speed Precip Events Conditions
12:53 AM 34.0 °F 22.4 °F 21.9 °F 61% 30.13 in 10.0 mi NW 20.7 mph 29.9 mph N/A   Overcast
1:53 AM 34.0 °F 23.4 °F 23.0 °F 64% 30.15 in 10.0 mi NW 17.3 mph 21.9 mph N/A   Overcast
2:53 AM 34.0 °F 23.8 °F 23.0 °F 64% 30.17 in 10.0 mi NW 16.1 mph 32.2 mph N/A   Overcast
3:24 AM 33.8 °F 23.5 °F 24.8 °F 70% 30.17 in 10.0 mi NW 16.1 mph - N/A   Overcast
3:32 AM 33.8 °F 23.9 °F 23.0 °F 65% 30.17 in 10.0 mi NW 15.0 mph 23.0 mph N/A   Overcast
3:53 AM 33.1 °F 22.6 °F 23.0 °F 66% 30.18 in 10.0 mi NW 16.1 mph 27.6 mph N/A   Overcast
4:53 AM 33.1 °F 21.9 °F 21.9 °F 64% 30.22 in 10.0 mi NNW 18.4 mph 25.3 mph N/A   Overcast
5:53 AM 33.1 °F 23.4 °F 21.0 °F 61% 30.25 in 10.0 mi NNW 13.8 mph 24.2 mph N/A   Overcast
6:53 AM 33.1 °F 23.0 °F 21.0 °F 61% 30.28 in 10.0 mi NNW 15.0 mph - N/A   Overcast
7:53 AM 33.1 °F 22.6 °F 21.9 °F 64% 30.32 in 10.0 mi NNW 16.1 mph 26.5 mph N/A   Overcast
8:53 AM 34.0 °F 23.8 °F 21.9 °F 61% 30.33 in 10.0 mi NNW 16.1 mph 26.5 mph N/A   Overcast
9:16 AM 33.8 °F 23.5 °F 23.0 °F 65% 30.33 in 10.0 mi NNW 16.1 mph 25.3 mph N/A   Overcast
9:53 AM 35.1 °F 24.8 °F 23.0 °F 61% 30.35 in 10.0 mi NNW 17.3 mph 24.2 mph N/A   Overcast
10:53 AM 36.0 °F 26.7 °F 24.1 °F 62% 30.36 in 10.0 mi NNW 15.0 mph - N/A   Overcast
11:22 AM 37.4 °F 27.8 °F 24.8 °F 60% 30.36 in 10.0 mi North 17.3 mph 20.7 mph N/A   Overcast
11:29 AM 37.4 °F 28.5 °F 24.8 °F 60% 30.36 in 2.0 mi NNW 15.0 mph - N/A   Haze
11:39 AM 37.4 °F 28.2 °F 24.8 °F 60% 30.35 in 10.0 mi NNW 16.1 mph - N/A   Overcast
11:53 AM 39.0 °F 30.6 °F 25.0 °F 57% 30.35 in 10.0 mi North 15.0 mph - N/A   Overcast
12:53 PM 39.9 °F 32.9 °F 24.1 °F 53% 30.34 in 10.0 mi North 11.5 mph 18.4 mph N/A   Overcast
1:53 PM 41.0 °F 35.8 °F 25.0 °F 53% 30.32 in 10.0 mi NW 8.1 mph - N/A   Mostly Cloudy
2:53 PM 42.1 °F 37.1 °F 26.1 °F 53% 30.33 in 10.0 mi North 8.1 mph 17.3 mph N/A   Mostly Cloudy
3:53 PM 44.1 °F 37.4 °F 26.1 °F 49% 30.33 in 10.0 mi NNE 13.8 mph - N/A   Mostly Cloudy
4:53 PM 43.0 °F 37.7 °F 26.1 °F 51% 30.32 in 10.0 mi North 9.2 mph - N/A   Partly Cloudy
5:53 PM 37.9 °F 32.1 °F 27.0 °F 65% 30.33 in 10.0 mi North 8.1 mph - N/A   Clear
6:53 PM 35.1 °F 31.0 °F 26.1 °F 70% 30.35 in 10.0 mi NNE 4.6 mph - N/A   Clear
7:53 PM 33.1 °F 27.7 °F 26.1 °F 75% 30.34 in 10.0 mi NNE 5.8 mph - N/A   Clear
8:53 PM 32.0 °F - 25.0 °F 75% 30.34 in 10.0 mi Calm Calm - N/A   Clear
9:53 PM 32.0 °F - 24.1 °F 73% 30.34 in 10.0 mi Calm Calm - N/A   Clear
10:53 PM 30.9 °F - 24.1 °F 76% 30.35 in 10.0 mi Calm Calm - N/A   Clear
11:53 PM 28.0 °F - 25.0 °F 88% 30.34 in 10.0 mi Calm Calm - N/A   Clear